Tracking 30995 objects as of 6-Jul-2025
HD Live streaming from Space Station
objects crossing your sky now

STARLINK-1470

Track STARLINK-1470 now!
10-day predictions
STARLINK-1470 is classified as:


NORAD ID: 45772
Int'l Code: 2020-038AU
Perigee: 538.5 km
Apogee: 544.6 km
Inclination: 53.1 °
Period: 95.3 minutes
Semi major axis: 6912 km
RCS: Unknown
Launch date: June 13, 2020
Source: United States (US)
Launch site: AIR FORCE EASTERN TEST RANGE (AFETR)
Your satellite tracking list
Your tracking list is empty




NASA's NSSDC Master Catalog

Two Line Element Set (TLE):
1 45772U 20038AU  25186.51471747  .00019487  00000-0  11813-2 0  9991
2 45772  53.0517 224.8073 0004417 298.7451  61.3096 15.10577738279520
Source of the keplerian elements: AFSPC